Location: Aletheia Temple Church
(32.7174°N, 97.2485°W)
Time: 01:56:45
(UTC+00:00)

Tiangong - Visible Passes

Search period start: 13 October 2024 00:00
Search period end: 23 October 2024 00:00
Orbit: 372 x 377 km, 41.5° (Epoch: 12 October)

Date Brightness Start Highest point End Pass type
(mag) Time Alt. Az. Time Alt. Az. Time Alt. Az.
15 Oct 0.4 11:17:58 10° S 11:20:09 18° SE 11:22:21 10° E visible
16 Oct -2.0 11:50:13 10° SW 11:53:18 71° SSE 11:56:23 10° ENE visible
17 Oct -0.5 10:50:24 30° SE 10:50:24 30° SE 10:52:53 10° E visible
18 Oct -2.2 11:22:31 47° W 11:23:12 66° NNW 11:26:17 10° ENE visible
19 Oct 1.2 10:22:25 13° ENE 10:22:25 13° ENE 10:22:49 10° ENE visible
19 Oct -0.8 11:54:25 14° WNW 11:56:29 26° NNW 11:59:09 10° NE visible
20 Oct -0.3 10:54:09 25° NNE 10:54:09 25° NNE 10:55:48 10° NE visible
21 Oct -0.5 11:25:43 20° NNW 11:26:03 20° NNW 11:28:29 10° NE visible
22 Oct 0.0 11:57:22 10° NW 11:59:22 16° N 12:01:23 10° NE visible
